Angola Tri-State Steuben Coun, IN

5:53 AM EDT on September 23, 2017 (GMT -0400)
Tri-State Steuben County

Weather History for KANQ - May, 2014

Change the Weather History Date:

Friday, May 2, 2014

  Actual Average (KFWA) Record (KFWA)
Temperature  
Mean Temperature 48 °F -  
Max Temperature 51 °F 66 °F 88 °F (1959)
Min Temperature 44 °F 43 °F 30 °F (1903)
Degree Days  
Heating Degree Days 18    
Moisture  
Dew Point 43 °F    
Average Humidity 86    
Maximum Humidity 93    
Minimum Humidity 67    
Precipitation  
Precipitation 0.00 in - - ()
Sea Level Pressure  
Sea Level Pressure 29.80 in    
Wind  
Wind Speed 10 mph (WSW)    
Max Wind Speed 16 mph    
Max Gust Speed -    
Visibility 9 miles    
Events      
Averages and records for this station are not official NWS values.
T = Trace of Precipitation, MM = Missing Value Source: NWS Daily Summary

Daily Weather History Graph

Daily Weather History Graph

Search for Another Location

Airport or City:

Trip Planner

Search our weather history database for the weather conditions in past years. The results will help you decide how hot, cold, wet, or windy it might be!

Date:

Astronomy

May. 02, 2014 Rise Set
Actual Time 6:35 AM EDT 8:39 PM EDT
Civil Twilight 6:05 AM EDT 9:09 PM EDT
Nautical Twilight 5:28 AM EDT 9:47 PM EDT
Astronomical Twilight 4:47 AM EDT 10:27 PM EDT
Moon 9:11 AM EDT (5/2) No Moon Set
Length of Visible Light 15h 04m
Length of Day
14h 03m
Waxing Crescent, 12% of the Moon is Illuminated
May 2
Waxing Crescent
May 6
First Quarter
May 14
Full
May 21
Last Quarter
May 28
New

Hourly Weather History & Observations

Time (EDT) Temp. Windchill Dew Point Humidity Pressure Visibility Wind Dir Wind Speed Gust Speed Precip Events Conditions
12:15 AM 44.6 °F 38.8 °F 42.8 °F 93% 29.80 in 10.0 mi West 11.5 mph - N/A   Overcast
12:35 AM 44.6 °F 40.2 °F 42.8 °F 93% 29.80 in 10.0 mi West 8.1 mph - N/A   Overcast
12:55 AM 44.6 °F 41.4 °F 42.8 °F 93% 29.79 in 10.0 mi West 5.8 mph - N/A   Overcast
1:15 AM 44.6 °F 39.2 °F 42.8 °F 93% 29.79 in 10.0 mi WSW 10.4 mph - N/A   Overcast
1:35 AM 44.6 °F 39.2 °F 42.8 °F 93% 29.79 in 10.0 mi West 10.4 mph - N/A   Overcast
1:55 AM 44.6 °F 38.8 °F 42.8 °F 93% 29.78 in 10.0 mi West 11.5 mph - N/A   Overcast
2:15 AM 44.6 °F 39.2 °F 42.8 °F 93% 29.78 in 10.0 mi WSW 10.4 mph - N/A   Mostly Cloudy
2:35 AM 44.6 °F 39.2 °F 42.8 °F 93% 29.78 in 10.0 mi West 10.4 mph - N/A   Overcast
2:55 AM 44.6 °F 40.2 °F 41.0 °F 87% 29.78 in 10.0 mi West 8.1 mph - N/A   Overcast
3:15 AM 44.6 °F 39.7 °F 42.8 °F 93% 29.78 in 10.0 mi West 9.2 mph - N/A   Overcast
3:35 AM 44.6 °F 40.7 °F 42.8 °F 93% 29.78 in 10.0 mi West 6.9 mph - N/A   Overcast
4:15 AM 44.6 °F 39.7 °F 42.8 °F 93% 29.78 in 10.0 mi West 9.2 mph - N/A   Overcast
4:35 AM 44.6 °F 39.7 °F 41.0 °F 87% 29.77 in 10.0 mi WSW 9.2 mph - N/A   Mostly Cloudy
4:55 AM 44.6 °F 40.7 °F 41.0 °F 87% 29.77 in 10.0 mi WSW 6.9 mph - N/A   Mostly Cloudy
5:15 AM 44.6 °F 40.7 °F 41.0 °F 87% 29.77 in 10.0 mi West 6.9 mph - N/A   Overcast
5:35 AM 44.6 °F 39.7 °F 41.0 °F 87% 29.77 in 10.0 mi WSW 9.2 mph - N/A   Overcast
5:55 AM 44.6 °F 39.7 °F 41.0 °F 87% 29.77 in 10.0 mi WSW 9.2 mph - N/A   Overcast
6:15 AM 44.6 °F 39.7 °F 41.0 °F 87% 29.78 in 10.0 mi WSW 9.2 mph - N/A   Overcast
6:35 AM 44.6 °F 40.2 °F 41.0 °F 87% 29.77 in 10.0 mi WSW 8.1 mph - N/A   Overcast
6:55 AM 44.6 °F 40.7 °F 42.8 °F 93% 29.78 in 10.0 mi West 6.9 mph - N/A   Overcast
7:15 AM 44.6 °F 40.7 °F 42.8 °F 93% 29.78 in 10.0 mi WSW 6.9 mph - N/A   Overcast
7:35 AM 44.6 °F 40.2 °F 42.8 °F 93% 29.79 in 10.0 mi WSW 8.1 mph - N/A   Overcast
7:55 AM 44.6 °F 40.7 °F 42.8 °F 93% 29.79 in 10.0 mi WSW 6.9 mph - N/A   Overcast
8:15 AM 44.6 °F 40.2 °F 42.8 °F 93% 29.80 in 10.0 mi WSW 8.1 mph - N/A   Overcast
8:35 AM 44.6 °F 40.2 °F 42.8 °F 93% 29.80 in 10.0 mi WSW 8.1 mph - N/A   Overcast
8:55 AM 46.4 °F 41.5 °F 42.8 °F 87% 29.80 in 10.0 mi WSW 10.4 mph - N/A   Overcast
9:15 AM 46.4 °F 42.9 °F 44.6 °F 93% 29.80 in 9.0 mi WSW 6.9 mph - N/A   Overcast
9:35 AM 46.4 °F 41.5 °F 44.6 °F 93% 29.81 in 5.0 mi WSW 10.4 mph - N/A   Overcast
9:55 AM 46.4 °F 41.9 °F 44.6 °F 93% 29.81 in 2.5 mi WSW 9.2 mph - N/A   Overcast
10:15 AM 46.4 °F 42.4 °F 44.6 °F 93% 29.81 in 7.0 mi WSW 8.1 mph - N/A   Overcast
10:35 AM 46.4 °F 42.4 °F 44.6 °F 93% 29.81 in 6.0 mi West 8.1 mph - N/A   Overcast
10:55 AM 46.4 °F 41.9 °F 44.6 °F 93% 29.82 in 3.0 mi WSW 9.2 mph - N/A   Overcast
11:15 AM 46.4 °F 42.4 °F 44.6 °F 93% 29.82 in 2.5 mi West 8.1 mph - N/A   Overcast
11:35 AM 46.4 °F 42.9 °F 44.6 °F 93% 29.82 in 9.0 mi West 6.9 mph - N/A   Overcast
11:55 AM 48.2 °F - 44.6 °F 87% 29.82 in 10.0 mi WSW 11.5 mph - N/A   Overcast
12:15 PM 48.2 °F - 44.6 °F 87% 29.83 in 10.0 mi WSW 11.5 mph - N/A   Overcast
12:35 PM 48.2 °F - 42.8 °F 82% 29.83 in 10.0 mi West 11.5 mph - N/A   Overcast
12:55 PM 48.2 °F - 42.8 °F 82% 29.83 in 10.0 mi West 11.5 mph - N/A   Overcast
1:15 PM 48.2 °F - 42.8 °F 82% 29.82 in 10.0 mi WSW 8.1 mph - N/A   Overcast
1:35 PM 48.2 °F - 42.8 °F 82% 29.82 in 10.0 mi West 11.5 mph - N/A   Overcast
1:55 PM 48.2 °F - 42.8 °F 82% 29.82 in 10.0 mi WSW 16.1 mph - N/A   Overcast
2:15 PM 48.2 °F - 42.8 °F 82% 29.82 in 10.0 mi SW 10.4 mph - N/A   Overcast
2:35 PM 48.2 °F - 42.8 °F 82% 29.82 in 10.0 mi WSW 12.7 mph - N/A   Overcast
2:55 PM 48.2 °F - 42.8 °F 82% 29.81 in 10.0 mi WSW 12.7 mph - N/A   Overcast
3:15 PM 51.8 °F - 42.8 °F 71% 29.81 in 10.0 mi SW 12.7 mph - N/A   Overcast
3:35 PM 51.8 °F - 42.8 °F 71% 29.80 in 10.0 mi WSW 12.7 mph - N/A   Overcast
3:55 PM 51.8 °F - 42.8 °F 71% 29.79 in 10.0 mi WSW 13.8 mph - N/A   Overcast
4:15 PM 51.8 °F - 42.8 °F 71% 29.79 in 10.0 mi West 13.8 mph - N/A   Overcast
4:35 PM 51.8 °F - 41.0 °F 67% 29.79 in 10.0 mi WSW 15.0 mph - N/A   Overcast
5:15 PM 51.8 °F - 42.8 °F 71% 29.80 in 10.0 mi West 11.5 mph - N/A   Overcast
5:35 PM 51.8 °F - 42.8 °F 71% 29.80 in 10.0 mi West 11.5 mph - N/A   Overcast
5:55 PM 51.8 °F - 42.8 °F 71% 29.80 in 10.0 mi West 10.4 mph - N/A   Overcast
6:15 PM 50.0 °F - 42.8 °F 76% 29.80 in 10.0 mi WSW 16.1 mph - N/A   Overcast
6:35 PM 50.0 °F - 42.8 °F 76% 29.80 in 10.0 mi WSW 9.2 mph - N/A   Overcast
6:55 PM 50.0 °F - 42.8 °F 76% 29.80 in 10.0 mi WSW 11.5 mph - N/A   Overcast
7:15 PM 50.0 °F - 42.8 °F 76% 29.80 in 10.0 mi SW 12.7 mph - N/A   Overcast
7:35 PM 48.2 °F - 42.8 °F 82% 29.80 in 10.0 mi WSW 9.2 mph - N/A   Overcast
7:55 PM 48.2 °F - 42.8 °F 82% 29.80 in 10.0 mi SW 10.4 mph - N/A   Overcast
8:15 PM 48.2 °F - 42.8 °F 82% 29.80 in 10.0 mi SW 9.2 mph - N/A   Overcast
8:35 PM 48.2 °F - 42.8 °F 82% 29.80 in 10.0 mi WSW 11.5 mph - N/A   Overcast
9:15 PM 46.4 °F 42.4 °F 44.6 °F 93% 29.81 in 10.0 mi SW 8.1 mph - N/A   Overcast
9:35 PM 46.4 °F 42.4 °F 44.6 °F 93% 29.82 in 10.0 mi SW 8.1 mph - N/A   Overcast
9:55 PM 46.4 °F 41.9 °F 44.6 °F 93% 29.82 in 8.0 mi SW 9.2 mph - N/A   Overcast
10:15 PM 46.4 °F 41.9 °F 44.6 °F 93% 29.82 in 10.0 mi SW 9.2 mph - N/A   Overcast
10:35 PM 46.4 °F 42.4 °F 44.6 °F 93% 29.82 in 10.0 mi WSW 8.1 mph - N/A   Overcast
10:55 PM 46.4 °F 42.4 °F 44.6 °F 93% 29.82 in 7.0 mi SW 8.1 mph - N/A   Overcast
11:15 PM 46.4 °F 42.4 °F 44.6 °F 93% 29.81 in 10.0 mi SW 8.1 mph - N/A   Overcast
11:35 PM 46.4 °F 41.1 °F 44.6 °F 93% 29.81 in 10.0 mi SW 11.5 mph - N/A   Mostly Cloudy